www.pogodaiklimat.ru

Погода и климат >> Архив погоды >> Австралия >> Западная Австралия >> Джайлс


ПОГОДА в Джайлсе

  • Прогноз погоды в Джайлсе
  • Монитор погоды в Джайлсе

АРХИВ ПОГОДЫ в Джайлсе

Время (UTC), дата Ветер
(напр.,м/с)
 
Видим.   Явления Облачность Т
(С)
Тd
(С)
f
(%)
Тe
(С)
Тes
(С)
Комфортность P
(гПа)
Po
(гПа)
Тmin
(С)
Tmax
(С)
R
(мм)
R24
(мм)
S
(см)
01 11.07 В 4 н/о н/о +17.6 -5.2 21 +17 +17 1028.0 957.9
02 11.07 ЮВ 5 40 км 6/0
[Ac trans Ci sp]
+19.3 -8.2 15 +19 +19 1027.6 957.5 +8.1
03 11.07 В 4 н/о н/о +20.8 -9.7 12 +20 +20 1027.0 956.9
04 11.07 В 4 н/о н/о +22.5 -13.8 8 +20 +20 1025.9 955.9
05 11.07 ЮВ 4 40 км 8/0
[Ac cast Ci]
+23.3 -13.7 7 +20 +20 1024.7 954.8
06 11.07 ЮВ 4 н/о н/о +23.3 -16.6 6 +20 +20 1024.4 954.5
07 11.07 В 3 н/о н/о +23.5 -17.8 5 +21 +21 комфорт 1024.5 954.6
08 11.07 ЮВ 4 40 км 9/0
[Ac trans Cs]
+23.0 -19.8 5 +20 +20 1024.5 954.6
09 11.07 В 3 н/о н/о +19.7 -12.9 10 +20 +20 1024.9 955.0
10 11.07 ЮВ 3 н/о н/о +17.6 -13.0 11 +18 +18 1025.5 955.5
11 11.07 В 3 40 км 8/0
[Ci sp]
+16.2 -12.7 13 +16 +16 1026.0 956.0
12 11.07 ЮВ 4 н/о н/о +15.3 -14.4 12 +15 +15 1026.3 956.3
13 11.07 В 3 н/о н/о +14.4 -12.1 15 +14 +14 1026.9 956.8
14 11.07 В 4 н/о 9/0
[]
+14.3 -13.2 14 +13 +13 1026.7 956.6 +23.8
15 11.07 В 3 н/о н/о +13.1 -11.3 17 +12 +12 1026.2 956.2
16 11.07 В 3 н/о н/о +11.1 -11.1 20 +10 +10 1026.0 956.0
17 11.07 В 4 н/о 10/0
[]
+13.9 -10.3 18 +13 +13 1025.8 955.8
18 11.07 В 4 н/о н/о +12.1 -12.2 17 +11 +11 1025.6 955.6
19 11.07 В 4 н/о н/о +12.2 -11.2 18 +11 +11 1025.5 955.5
20 11.07 ЮВ 3 40 км 9/0
[Ac trans]
+11.4 -10.3 21 +10 +10 1025.6 955.6
21 11.07 В 3 н/о н/о +12.7 -8.7 22 +12 +12 1026.1 956.1
22 11.07 В 3 н/о н/о +13.6 -8.2 21 +13 +13 1026.9 956.8
23 11.07 В 4 40 км осадки на расстоянии 9/0
[Ac As]
+14.2 -8.9 19 +13 +13 1027.4 957.3
00 12.07 В 4 н/о н/о +14.9 -8.8 19 +14 +14 1027.9 957.8
01 12.07 ЮВ 3 н/о н/о +16.8 -8.3 17 +17 +17 1028.4 958.2
02 12.07 ЮВ 5 40 км осадки на расстоянии 9/0
[Ac As Cs]
+18.8 -7.9 16 +18 +18 1027.7 957.6 +10.8
03 12.07 ЮВ 6 н/о н/о +19.5 -12.1 11 +19 +19 1026.5 956.5
04 12.07 ЮВ 4 н/о н/о +20.2 -11.8 10 +20 +20 1025.8 955.8
05 12.07 ЮВ 5 40 км осадки на расстоянии 9/0
[Ac cast Cs]
+21.1 -15.7 7 +19 +19 1024.9 955.0
06 12.07 ЮВ 4 н/о н/о +21.0 -14.2 8 +20 +20 1024.8 954.9
07 12.07 Ю 4 н/о н/о +20.8 -16.2 7 +20 +20 1025.4 955.4
08 12.07 Ю 4 40 км осадки на расстоянии 9/0
[Ac trans Cs]
+20.0 -14.2 9 +19 +19 1025.1 955.2
09 12.07 ЮВ 3 н/о н/о +18.2 -10.2 13 +18 +18 1025.6 955.6
10 12.07 ЮВ 3 н/о н/о +15.5 -10.1 16 +15 +15 1026.0 956.0
11 12.07 ЮВ 4 40 км 5/0
[Ac trans Ci sp]
+14.1 -11.0 16 +13 +13 1026.9 956.8
12 12.07 ЮВ 4 н/о н/о +13.3 -12.1 16 +12 +12 1027.2 957.1
13 12.07 В 4 н/о н/о +12.7 -11.1 18 +12 +12 1027.1 957.0
14 12.07 ЮВ 3 н/о 3/0
[]
+11.2 -8.5 24 +10 +10 1027.6 957.5 +21.8
15 12.07 ЮВ 3 н/о н/о +10.5 -8.5 25 +9 +9 1027.6 957.5
16 12.07 В 3 н/о н/о +11.0 -7.4 27 +10 +10 1027.3 957.2
17 12.07 ЮВ 5 н/о н/о +11.0 -4.3 34 +9 +9 1027.4 957.3
18 12.07 ЮВ 5 н/о н/о +9.8 -2.5 42 +7 +7 1027.1 957.0
19 12.07 ЮВ 6 н/о н/о +9.8 -0.8 48 +7 +7 1027.5 957.4
20 12.07 ЮВ 6 40 км ясно +8.8 -0.3 53 +6 +6 1027.9 957.8
21 12.07 ЮВ 4 н/о н/о +7.3 +0.1 60 +4 +4 1028.5 958.3
22 12.07 В 1 н/о н/о +5.9 +0.1 66 +6 +6 1029.5 959.3
23 12.07 ЮВ 5 40 км ясно +7.8 +0.2 59 +5 +5 1030.1 959.8
00 13.07 ЮВ 7 н/о н/о +11.0 +0.9 50 +8 +8 1030.7 960.4
01 13.07 ЮВ 7 н/о н/о +13.2 +2.6 49 +11 +11 1030.9 960.6
02 13.07 В 7 40 км ясно +14.7 +1.5 41 +13 +13 1030.9 960.6 +5.6
03 13.07 ЮВ 6 н/о н/о +16.3 -0.5 32 +15 +15 1030.4 960.1
04 13.07 ЮВ 5 н/о н/о +17.6 -1.0 28 +17 +17 1029.2 959.0
05 13.07 ЮВ 4 40 км ясно +18.3 -1.6 26 +18 +18 1028.2 958.0
06 13.07 ЮВ 6 н/о н/о +19.3 -1.5 24 +19 +19 1027.6 957.5
07 13.07 ЮВ 6 н/о н/о +19.2 -2.1 24 +19 +19 1027.4 957.3
08 13.07 ЮВ 7 40 км ясно +18.7 -4.5 20 +18 +18 1027.4 957.3
09 13.07 ЮВ 5 н/о н/о +16.6 -4.2 24 +16 +16 1027.7 957.6
10 13.07 Ю 6 н/о н/о +15.0 -2.9 29 +14 +14 1027.9 957.8
11 13.07 ЮВ 6 40 км ясно +14.0 -1.7 34 +12 +12 1028.7 958.5
12 13.07 ЮВ 6 н/о н/о +13.2 -0.9 38 +11 +11 1029.2 959.0
13 13.07 ЮВ 5 н/о н/о +11.8 -0.4 43 +10 +10 1029.7 959.4
14 13.07 ЮВ 4 н/о н/о +9.9 0.0 50 +8 +8 1029.5 959.3 +20.0
15 13.07 ЮВ 4 н/о н/о +8.6 0.0 55 +6 +6 1029.3 959.1
17 13.07 ЮВ 5 н/о н/о +7.2 +0.3 62 +4 +4 1029.1 958.9
18 13.07 ЮВ 6 н/о н/о +7.5 +1.0 63 +4 +4 1028.6 958.4
19 13.07 ЮВ 5 н/о н/о +7.0 +1.5 68 +3 +3 1029.0 958.8
20 13.07 ЮВ 5 40 км ясно +6.8 +1.5 69 +3 +3 1029.4 959.2
21 13.07 ЮВ 4 н/о н/о +5.7 +1.3 73 +2 +2 1029.7 959.4
22 13.07 В 4 н/о н/о +5.1 +1.1 75 +1 +1 1030.4 960.1
23 13.07 ЮВ 4 40 км ясно +6.3 +1.2 70 +3 +3 1031.1 960.7
00 14.07 В 6 н/о н/о +9.7 +0.6 53 +7 +7 1031.6 961.2
01 14.07 В 7 н/о н/о +11.9 -0.3 43 +9 +9 1031.7 961.3
02 14.07 В 8 40 км ясно +13.6 -1.7 35 +11 +11 1031.2 960.8 +5.0
03 14.07 В 6 н/о н/о +15.8 -3.0 27 +15 +15 1030.2 959.9
04 14.07 В 7 н/о н/о +16.9 -4.1 23 +16 +16 1028.9 958.7
05 14.07 ЮВ 8 40 км ясно +17.0 -3.8 24 +16 +16 1027.9 957.8
06 14.07 ЮВ 7 н/о н/о +18.0 -4.7 21 +17 +17 1027.6 957.5
07 14.07 ЮВ 6 н/о н/о +18.4 -5.2 20 +18 +18 1027.0 956.9
08 14.07 ЮВ 7 40 км ясно +17.4 -6.2 19 +17 +17 1027.3 957.3
09 14.07 ЮВ 6 н/о н/о +15.8 -5.5 23 +15 +15 1027.6 957.5
10 14.07 ЮВ 5 н/о н/о +13.9 -4.6 27 +13 +13 1027.9 957.8
11 14.07 ЮВ 5 40 км ясно +12.9 -4.9 29 +11 +11 1028.3 958.1
12 14.07 ЮВ 6 н/о н/о +11.3 -5.0 32 +9 +9 1028.8 958.6
13 14.07 ЮВ 6 н/о н/о +9.7 -4.6 36 +7 +7 1028.6 958.4
14 14.07 ЮВ 5 н/о н/о +8.5 -3.9 41 +6 +6 1028.6 958.4 +18.9
15 14.07 ЮВ 5 н/о н/о +7.7 -2.9 47 +5 +5 1028.5 958.3
16 14.07 ЮВ 5 н/о н/о +6.9 -2.7 50 +3 +3 1028.3 958.1
17 14.07 ЮВ 5 н/о н/о +6.7 -1.9 54 +3 +3 1027.9 957.8
18 14.07 ЮВ 5 н/о н/о +5.7 -1.7 59 +2 +2 1028.3 958.1
19 14.07 ЮВ 6 н/о н/о +6.3 -1.5 57 +2 +2 1027.8 957.7
20 14.07 ЮВ 5 40 км 8/0
[Ac As]
+6.8 -1.8 54 +3 +3 1027.4 957.3
21 14.07 В 2 н/о н/о +6.7 -1.3 57 +5 +5 1028.4 958.2
22 14.07 В 2 н/о н/о +5.5 -1.0 63 +4 +4 1029.2 959.0
23 14.07 В 1 40 км осадки на расстоянии 5/0
[Ac As]
+7.1 -1.1 56 +7 +7 1029.8 959.5
00 15.07 В 6 н/о н/о +10.7 -1.5 43 +8 +8 1030.0 959.7
01 15.07 В 6 н/о н/о +11.4 -1.4 41 +9 +9 1030.2 959.9
02 15.07 В 7 40 км 6/0
[Ac As]
+12.9 -2.9 33 +11 +11 1030.0 959.7 +4.8
03 15.07 В 7 н/о н/о +15.0 -4.6 26 +13 +13 1028.9 958.7
04 15.07 В 6 н/о н/о +17.4 -5.2 21 +17 +17 1027.5 957.4
05 15.07 В 5 40 км осадки на расстоянии 8/0
[Ac cast Ci fib]
+18.0 -7.2 17 +18 +18 1026.8 956.7
06 15.07 В 5 н/о н/о +19.0 -6.7 17 +19 +19 1025.9 955.9
07 15.07 В 7 н/о н/о +18.9 -8.1 15 +18 +18 1025.6 955.6
08 15.07 ЮВ 6 40 км осадки на расстоянии 9/0
[Ac As]
+18.5 -8.1 16 +18 +18 1025.5 955.6
09 15.07 ЮВ 4 н/о н/о +17.4 -7.7 17 +17 +17 1025.6 955.6
10 15.07 ЮВ 4 н/о н/о +16.4 -7.1 19 +16 +16 1026.3 956.3
11 15.07 В 4 н/о н/о +14.6 -6.8 22 +14 +14 1026.7 956.6
12 15.07 В 4 н/о н/о +14.2 -5.8 25 +13 +13 1027.1 957.0
13 15.07 В 4 н/о н/о +12.8 -5.5 27 +12 +12 1027.1 957.0
14 15.07 В 5 н/о 9/0
[]
+12.2 -5.4 29 +11 +11 1027.0 956.9 +20.5
15 15.07 ЮВ 5 н/о н/о +11.9 -4.7 31 +10 +10 1027.1 957.0
16 15.07 ЮВ 4 н/о н/о +10.1 -4.3 36 +8 +8 1026.9 956.8
17 15.07 ЮВ 4 н/о н/о +8.8 -3.4 42 +7 +7 1026.9 956.8
18 15.07 В 3 н/о н/о +8.1 -1.6 50 +6 +6 1026.8 956.7
19 15.07 В 4 н/о н/о +7.5 -0.5 57 +5 +5 1026.7 956.6
20 15.07 В 3 40 км ясно +6.9 +0.8 65 +4 +4 1027.0 956.9
21 15.07 В 3 н/о н/о +6.4 +1.6 71 +4 +4 1027.5 957.4
22 15.07 ЮВ 2 н/о н/о +4.9 +1.2 77 +2 +2 1028.0 957.9
23 15.07 В 2 40 км ясно +6.8 +1.5 69 +5 +5 1028.7 958.5
00 16.07 В 5 н/о н/о +10.8 +2.4 56 +8 +8 1029.0 958.8
01 16.07 В 5 н/о н/о +12.9 +1.6 46 +11 +11 1029.1 959.0
02 16.07 В 6 40 км ясно +15.0 -2.5 30 +14 +14 1028.6 958.4 +4.3
03 16.07 В 6 н/о н/о +16.8 -4.2 23 +16 +16 1027.7 957.6
04 16.07 В 4 н/о н/о +17.8 -3.8 23 +18 +18 1026.5 956.5
05 16.07 ЮВ 4 40 км ясно +18.7 -7.5 16 +18 +18 1025.7 955.7
06 16.07 В 4 н/о н/о +19.4 -8.4 14 +19 +19 1024.9 955.0
07 16.07 ЮВ 5 н/о н/о +20.5 -12.1 10 +20 +20 1024.6 954.7
08 16.07 В 5 40 км ясно +19.6 -11.7 11 +19 +19 1024.5 954.6
09 16.07 ЮВ 4 н/о н/о +17.0 -10.0 15 +17 +17 1024.6 954.7
10 16.07 ЮВ 3 н/о н/о +13.8 -8.2 21 +13 +13 1025.1 955.2
11 16.07 ЮВ 3 40 км ясно +11.6 -6.6 27 +10 +10 1025.6 955.6
12 16.07 В 4 н/о н/о +11.2 -8.5 24 +10 +10 1025.6 955.6
13 16.07 ЮВ 3 н/о н/о +7.7 -8.3 31 +6 +6 1026.0 956.0
14 16.07 В 4 н/о н/о +8.6 -8.5 29 +6 +6 1026.1 956.1 +20.5
15 16.07 В 4 н/о н/о +7.5 -8.7 31 +5 +5 1026.0 956.0
16 16.07 В 3 н/о н/о +5.2 -8.2 37 +3 +3 1025.6 955.6
17 16.07 В 4 н/о н/о +6.1 -6.6 40 +3 +3 1025.3 955.3
18 16.07 В 3 н/о н/о +5.8 -6.3 41 +3 +3 1024.7 954.8
19 16.07 В 2 н/о н/о +5.7 -5.2 45 +4 +4 1024.6 954.7
20 16.07 В 3 40 км ясно +4.6 -5.7 47 +2 +2 1024.7 954.8
21 16.07 ЮВ 3 н/о н/о +3.1 +1 +1 1025.1 955.2
22 16.07 В 3 н/о н/о +2.8 +1 +1 1025.1 955.2
23 16.07 В 3 40 км ясно +5.5 -4.8 47 +3 +3 1025.5 955.6
00 17.07 В 4 н/о н/о +11.2 -1.7 41 +9 +9 1025.8 955.8
01 17.07 В 7 н/о н/о +13.9 +0.9 41 +12 +12 1025.9 955.9
03 17.07 В 5 н/о н/о +18.3 +1.0 31 +18 +18 1024.7 954.8
04 17.07 СВ 5 н/о н/о +19.6 +0.3 27 +19 +19 1023.1 953.3
05 17.07 СВ 4 40 км ясно +20.9 -2.5 21 +21 +21 комфорт 1021.9 952.2
06 17.07 В 4 н/о н/о +21.4 -3.5 19 +21 +21 комфорт 1021.2 951.5
07 17.07 В 4 н/о н/о +21.7 -6.7 14 +20 +20 1021.0 951.3
08 17.07 В 4 40 км ясно +21.5 -4.7 17 +20 +20 1021.1 951.4
09 17.07 В 3 н/о н/о +19.1 -2.6 23 +19 +19 1021.3 951.6
10 17.07 В 4 н/о н/о +17.3 -3.5 24 +17 +17 1021.8 952.1
11 17.07 СВ 4 40 км ясно +16.3 -2.3 28 +16 +16 1022.3 952.5
12 17.07 СВ 3 н/о н/о +15.5 -1.1 32 +15 +15 1022.6 952.8
13 17.07 В 3 н/о н/о +12.9 -2.0 35 +12 +12 1022.6 952.8
14 17.07 В 4 н/о н/о +12.4 -1.4 38 +11 +11 1022.5 952.7 +22.2
15 17.07 В 4 н/о н/о +13.1 -1.3 37 +12 +12 1021.8 952.1
16 17.07 В 4 н/о н/о +10.4 -1.9 42 +9 +9 1021.4 951.7
17 17.07 В 4 н/о н/о +12.0 0.0 44 +11 +11 1021.3 951.6
18 17.07 В 3 н/о н/о +7.5 -1.8 52 +5 +5 1021.5 951.8
19 17.07 ЮВ 3 н/о н/о +7.5 -1.4 53 +5 +5 1021.4 951.7
20 17.07 В 3 40 км ясно +7.2 -0.3 59 +5 +5 1021.4 951.7
21 17.07 СВ 1 н/о н/о +7.6 -0.7 56 +7 +7 1021.5 951.8
22 17.07 В 2 н/о н/о +6.9 -1.3 56 +6 +6 1021.7 952.0
23 17.07 ЮВ 1 40 км ясно +10.4 -0.8 46 +11 +11 1022.3 952.5
00 18.07 СВ 7 н/о н/о +16.2 -2.1 28 +15 +15 1022.9 953.1

 

Местоположение метеостанции Джайлс (Западная Австралия, Австралия): широта -25.03 долгота 128.30 высота над уровнем моря 599 м.

В архиве по умолчанию представлена погода в Джайлсе за последнюю неделю. Архивные данные за месяц целиком и за предыдущие месяцы, начиная с января 2011 года, Вы можете получить, выбрав интересующий диапазон дат из раскрывающегося списка и нажав кнопку "Ввод!".


*Определитесь, кто Вы:
робот инопланетянин человек

Внимание! Время в таблицах - всемирное. Для получения местного времени необходимо прибавить поправку, которая равна 8 ч.

Смотрите также архив погоды в соседних городах и на ближайших метеорологических станциях:

Погода в Уорбертоне (Западная Австралия, Австралия) (212 км)
Погода в Кинторе (Северная территория, Австралия) (224 км)
Погода в Юларе (Северная территория, Австралия) (271 км)
Погода в Эрнабелле (Южная Австралия, Австралия) (413 км)
Погода в Раббит Флат (Северная территория, Австралия) (568 км)
Погода в Элис-Спрингсе (Северная территория, Австралия) (581 км)
Погода на Виноградной ферма (Северная территория, Австралия) (614 км)
Погода в Форресте (Западная Австралия, Австралия) (645 км)
Погода в Лавертоне (Западная Австралия, Австралия) (707 км)
Погода в Телфере (Западная Австралия, Австралия) (723 км)

Пояснения к столбцам:

Ветер - указаны скорость ветра в м/с - средняя за 10 мин, порывы в срок и между сроками (в фигурных скобках) и направление, откуда дует ветер: С - северный, СВ - северо-восточный, В - восточный, ЮВ - юго-восточный, Ю - южный, ЮЗ - юго-западный, З - западный, СЗ - северо-западный.
Видимость - горизонтальная дальность видимости в метрах или километрах. При видимости от 1 до 10 км при отсутствии осадков обычно наблюдается дымка, при ухудшении видимости до 1 км и менее - туман. В сухую погоду видимость может ухудшаться дымом, пылью или мглою.
Явления - указаны атмосферные явления, наблюдавшиеся в срок или в последний час перед сроком; фигурными скобками обозначены явления, наблюдавшиеся между сроками (за 1-3 часа до срока); квадратными скобками обозначены град или гололедные отложения с указанием их диаметра в мм.
Облачность - указаны через наклонную черту общая и нижняя облачность в баллах и высота нижней границы облаков в метрах; квадратными скобками обозначены формы облаков: Ci - перистые, Cs - перисто-слоистые, Cc - перисто-кучевые, Ac - высококучевые, As - высокослоистые, Sc - слоисто-кучевые, Ns - слоисто-дождевые, Cu - кучевые, Cb - кучево-дождевые. Подробнее классификацию облаков см. в Атласе облаков (PDF).
T - Температура воздуха - температура, измеренная на высоте 2 м над землей.
Td - Температура точки росы - температура, при понижении до которой содержащийся в воздухе водяной пар достигнет насыщения.
f - Относительная влажность воздуха - влажноcть воздуха, измеренная на высоте 2 м над землей.
Te - Эффективная температура - температура, которую ощущает одетый по сезону человек в тени. Характеристика душности погоды. При расчете учитывается влияние влажности воздуха и скорости ветра на теплоощущения человека.
Tes - Эффективная температура на солнце - температура, которую ощущает человек, с поправкой на солнечный нагрев. Характеристика знойности погоды. Зависит от высоты солнца над горизонтом, облачности и скорости ветра. Ночью, в пасмурную погоду, а также при ветре 12 м/с и более поправка равна нулю.
P - Атмосферное давление - приведенное к уровню моря атмосферное давление.
Po - Атмосферное давление - измеренное на уровне метеостанции атмосферное давление.
Tmin - Минимальная температура - минимум температуры воздуха на высоте 2 м над землей.
Tmax - Максимальная температура - максимум температуры воздуха на высоте 2 м над землей.
R - Количество осадков - Количество выпавших осадков за период времени, мм. При наведении курсора мыши на число - период времени, за который выпало указанное количество осадков.
R24 - Количество осадков - Количество выпавших осадков за 24 часа, мм.
S - Снежный покров - Высота снежного покрова, см. При наведении курсора мыши на число - состояние снежного покрова и степень покрытия местности в баллах.